Wind_Speed
12 11 12 12 12 12 11 14 16 14 13 4 7 5 4 6 8 6 4 4 4 11 14 13 12 24 7 4 5 2 4 3 7 7 5 6 5 0 2 6 1 1 6 4 24
13 12 12 12 11 10 15 14 12 10 11 9 8 5 5 5 6 9 8 8 9 9 10 16 7 15 5 5 5 4 3 6 4 3 5 6 5 9 5 4 1 0 2 16 25
13 13 12 12 10 9 14 12 11 10 10 9 9 7 4 1 3 6 9 13 10 7 4 4 7 6 4 2 4 2 3 5 2 3 4 7 3 1 8 3 6 9 8 12 15
15 15 13 12 9 9 10 14 12 10 11 13 11 7 5 6 7 3 3 4 8 8 3 2 2 4 3 3 4 2 3 1 0 1 5 8 7 4 2 2 6 7 16 16 11
16 16 16 14 11 9 11 10 13 11 10 9 9 7 5 2 6 1 1 1 1 3 4 3 4 2 1 3 3 2 4 4 3 5 5 7 4 4 4 4 3 10 8 11 11
17 17 16 15 12 10 11 11 13 12 10 9 7 7 3 4 3 4 2 2 2 4 3 2 4 4 3 2 2 1 3 3 5 4 2 5 2 6 3 2 6 9 9 8 9
15 18 16 14 12 11 11 12 9 13 12 9 7 8 1 8 1 4 3 3 2 2 3 2 3 2 4 4 1 2 2 3 3 4 3 0 1 5 3 4 8 9 7 7 10
16 18 15 12 12 11 11 13 10 11 13 10 9 5 5 6 8 5 3 2 3 3 2 5 3 4 4 3 6 4 5 2 3 2 2 3 6 4 3 5 8 8 7 7 9
15 17 15 12 11 10 10 13 11 10 15 13 9 3 5 2 7 7 6 3 4 4 4 5 3 3 4 6 3 6 3 2 7 3 1 3 6 5 1 3 6 7 7 7 7
13 17 15 12 10 9 9 11 10 9 19 14 6 2 3 5 5 11 7 5 3 4 4 5 5 3 3 3 6 5 5 4 5 2 3 1 7 6 2 4 9 7 8 8 8
11 15 13 11 10 8 9 6 4 5 3 5 8 3 2 3 7 8 7 7 3 5 5 2 3 7 8 7 2 6 4 4 2 2 1 6 6 12 5 4 7 9 8 8 10
11 12 11 8 9 9 14 3 6 3 2 0 2 1 3 2 4 2 11 5 5 4 4 4 8 3 5 5 4 4 4 4 2 2 1 4 9 10 5 7 9 11 9 10 7
14 12 11 7 6 7 7 4 3 10 4 1 5 2 3 4 1 7 8 5 3 5 4 4 1 8 6 4 6 3 5 4 3 3 2 5 7 7 8 4 7 8 10 10 14
15 12 10 8 5 4 3 6 4 7 3 5 3 6 3 6 1 3 9 5 2 6 4 3 1 6 2 5 6 4 5 5 5 4 4 2 6 5 7 9 7 11 11 15 15
14 13 11 9 7 4 5 6 5 3 2 7 5 2 4 6 6 1 3 4 8 6 6 5 5 5 3 4 7 5 6 7 4 3 2 0 3 6 2 7 13 10 11 14 10
16 15 16 9 8 9 7 5 7 1 4 5 3 7 6 2 3 3 2 4 4 4 2 4 1 4 6 3 7 8 7 7 5 3 3 7 7 5 5 7 6 6 8 7 8
17 16 16 6 7 14 10 6 2 3 1 3 2 6 9 5 5 4 10 7 7 6 6 2 3 2 4 6 1 3 7 2 3 0 7 1 4 11 6 10 10 11 9 5 6
20 20 11 6 20 14 6 4 1 1 3 1 3 7 9 5 2 3 10 8 6 2 5 7 4 8 5 5 6 5 6 5 7 5 3 2 7 6 8 9 9 8 8 8 8
26 19 10 17 14 10 4 4 0 2 2 5 3 0 4 3 3 4 8 9 10 7 5 5 4 1 4 5 8 5 6 5 5 3 3 4 7 9 11 12 6 8 7 8 8
22 9 6 12 5 4 4 3 2 3 3 3 7 5 6 4 2 5 10 7 4 8 1 2 2 2 4 3 2 6 8 3 2 1 4 5 5 7 5 6 9 7 7 8 6
15 3 5 7 7 5 3 2 4 3 2 4 3 3 4 5 5 3 7 3 4 2 6 1 1 1 4 7 9 4 4 4 5 5 5 2 6 7 7 7 8 7 8 6 7
4 3 8 3 4 2 3 2 1 2 2 4 2 2 2 3 3 5 4 7 14 5 6 6 1 4 6 0 2 4 5 11 4 5 3 2 9 4 6 5 4 6 6 5 5
3 2 5 1 3 2 2 3 2 1 4 3 2 1 1 3 4 6 4 5 8 10 6 8 4 3 1 2 2 4 5 6 3 2 8 4 9 5 4 3 5 3 1 2 5
3 3 3 3 2 6 4 2 3 6 4 2 3 0 1 3 2 3 2 1 5 2 13 8 4 6 8 3 6 6 7 11 10 6 16 14 23 6 2 3 5 6 4 5 7
3 1 2 2 0 3 2 3 2 3 0 1 1 2 2 2 2 1 2 2 3 4 3 2 4 5 15 6 1 5 8 13 16 22 14 22 21 22 14 12 7 9 5 9 10
4 4 2 2 1 3 4 1 3 2 4 2 3 1 5 4 3 3 2 4 3 1 2 2 3 5 6 8 9 13 7 13 21 22 17 27 25 16 13 7 8 10 11 12 12
3 3 4 3 2 3 2 3 2 3 2 3 3 2 1 6 5 6 5 4 3 3 2 3 1 2 4 2 6 6 22 24 17 15 19 19 30 14 18 12 17 12 9 15 16
Wind_Direction
278 282 282 287 272 254 232 227 231 244 260 241 245 249 298 310 310 303 264 245 288 321 334 332 350 8 18 18 18 107 65 153 177 156 185 175 130 214 89 113 77 288 157 200 163
274 278 282 285 280 280 230 227 223 243 254 255 267 257 272 301 317 284 253 286 290 319 339 8 359 18 2 6 7 65 91 180 172 187 177 166 152 159 134 126 164 116 29 148 160
267 270 279 280 279 265 240 226 216 220 231 249 237 220 218 10 334 253 260 253 256 288 331 37 14 37 338 353 1 358 158 174 189 177 168 146 124 114 120 208 206 184 161 149 162
259 264 266 272 277 261 252 227 219 214 215 212 219 230 165 153 231 315 272 255 250 256 234 114 70 118 311 33 339 48 360 324 357 145 127 148 135 132 197 232 284 182 159 158 167
254 259 262 268 275 256 246 230 215 213 211 205 210 206 152 142 252 340 278 328 253 231 231 184 136 136 160 50 345 65 2 24 33 76 102 114 115 139 226 337 96 126 149 172 176
256 249 258 259 264 261 248 235 213 207 209 203 194 183 139 196 222 206 187 112 171 189 187 184 183 162 113 104 136 317 66 4 10 25 58 120 137 136 214 124 135 154 181 184 190
279 242 246 250 249 255 246 226 218 208 208 200 181 171 69 232 223 196 198 126 125 175 159 169 119 127 121 128 337 52 64 6 17 355 31 330 90 221 154 148 169 189 190 195 216
279 232 236 239 242 247 238 224 218 210 202 190 170 161 244 226 226 208 181 115 117 125 132 151 102 105 98 123 32 68 49 89 315 19 24 74 257 265 118 150 194 202 203 210 224
270 223 225 229 241 241 237 220 216 238 190 178 154 153 249 210 194 188 179 134 131 110 85 128 72 96 58 115 63 14 163 173 316 204 66 130 240 276 155 188 228 224 228 235 259
250 213 218 223 240 236 225 202 210 234 172 138 115 115 229 215 167 170 161 138 107 116 74 52 44 94 56 131 191 175 179 211 203 341 51 35 253 267 314 200 234 238 241 243 251
214 201 214 226 230 228 193 156 132 186 204 160 183 209 113 119 123 147 153 120 92 70 148 64 138 202 180 200 132 135 130 155 242 343 191 232 249 260 236 266 260 250 247 242 240
206 201 212 219 220 223 201 219 109 107 146 322 72 162 145 179 96 119 151 124 147 152 127 96 226 165 144 141 127 122 136 189 264 39 144 321 272 271 245 224 227 238 243 243 251
211 203 205 205 206 212 204 114 68 116 39 298 165 295 167 137 123 182 142 121 139 130 178 173 195 160 161 152 154 161 164 167 180 25 57 336 282 245 267 220 223 244 243 245 235
210 199 189 178 149 175 110 121 52 124 189 194 222 211 144 132 227 179 173 132 149 149 110 278 222 145 139 178 138 219 173 141 123 84 239 34 282 286 263 275 247 244 237 248 245
194 184 175 164 135 114 149 122 13 119 227 146 156 179 172 149 127 325 218 57 146 149 132 230 177 146 169 217 146 218 156 155 133 128 27 260 304 269 304 287 263 255 236 246 253
174 167 155 128 90 134 111 133 64 28 236 164 127 159 146 133 86 107 150 47 120 110 65 192 102 165 192 150 160 140 93 58 56 84 290 183 177 225 208 221 284 265 261 259 268
163 157 151 92 129 136 112 62 132 204 293 140 189 164 166 149 127 145 180 163 156 159 190 151 201 188 142 104 76 120 113 44 6 54 232 84 175 265 279 245 229 259 275 285 288
154 147 129 130 114 120 107 72 179 200 315 95 325 147 189 130 121 110 154 182 233 106 153 170 214 169 182 175 172 182 151 156 196 197 264 101 228 253 233 268 262 273 279 278 272
140 119 96 135 125 113 68 90 156 304 250 16 40 256 172 124 138 126 190 203 195 186 170 159 254 92 161 156 143 200 209 151 103 53 47 221 281 286 262 277 283 268 290 298 289
124 79 40 147 124 65 70 100 67 16 341 48 43 356 38 186 165 174 167 211 215 180 128 246 177 350 150 114 56 161 147 81 18 156 266 259 262 239 278 249 266 277 282 294 295
96 74 29 114 111 49 104 99 94 23 327 61 95 334 73 32 14 225 190 335 234 224 163 87 272 319 137 205 172 146 172 201 136 162 189 262 258 216 238 251 263 279 266 287 293
79 78 6 89 54 17 105 160 246 147 275 87 100 109 95 108 73 5 320 21 338 254 187 189 187 191 202 2 358 246 222 190 187 229 247 211 254 206 223 271 213 318 300 312 293
76 65 5 9 122 107 8 344 311 61 51 79 79 345 186 176 164 160 120 275 350 338 186 161 202 148 326 348 7 203 197 210 186 89 217 184 261 333 163 244 281 260 327 330 280
96 97 1 54 126 127 132 334 33 14 51 75 118 112 242 233 353 52 172 257 182 210 325 334 200 205 218 173 136 190 195 205 209 224 246 232 258 259 337 286 277 271 223 250 267
34 89 193 126 53 105 87 155 104 115 263 65 42 146 106 33 44 336 312 313 310 26 243 231 273 208 259 270 246 201 200 216 217 231 228 256 250 251 249 251 238 228 242 273 283
125 140 40 82 64 72 12 195 139 261 158 239 163 102 179 168 173 186 174 233 176 192 341 90 283 24 278 255 233 250 235 228 224 234 240 250 258 254 259 217 224 221 219 242 258
101 88 99 6 5 68 253 213 238 169 210 180 180 82 159 251 244 233 217 259 212 108 345 296 55 74 258 48 2 257 234 231 233 229 225 240 249 258 260 223 228 229 234 249 256
Height
791 789 790 789 788 786 785 791 796 795 795 794 796 798 797 798 799 800 799 799 797 796 794 795 790 787 788 790 791 791 815 829 823 824 815 812 815 814 814 819 822 822 822 821 826
788 788 788 788 787 786 788 791 790 791 794 795 798 795 797 800 800 799 797 795 795 796 794 791 792 792 798 797 796 801 819 816 809 810 812 811 811 814 817 821 823 823 821 821 825
786 787 786 786 786 785 786 788 789 791 793 794 800 800 798 799 802 795 793 794 797 798 798 797 796 799 804 801 804 805 814 808 807 805 807 811 814 813 819 825 818 819 821 822 825
784 784 785 786 785 785 786 786 788 791 795 797 798 800 798 801 806 792 791 792 795 796 799 799 801 804 808 808 806 808 806 806 806 803 806 812 812 814 815 815 811 811 812 819 824
781 782 781 782 783 784 785 786 787 791 793 795 798 799 798 801 798 794 792 793 795 797 797 799 800 803 806 805 807 808 810 807 808 807 807 808 814 815 815 812 811 813 817 819 823
777 779 780 780 781 782 783 784 785 789 791 794 795 797 798 802 794 795 795 795 797 798 799 798 797 799 804 807 811 810 812 813 811 810 809 811 812 812 814 813 815 816 818 820 821
773 775 777 779 780 780 782 783 784 787 790 792 792 796 798 796 792 793 795 795 796 797 798 799 799 801 803 810 811 811 813 815 815 813 814 811 816 815 811 814 816 818 819 821 821
769 771 775 777 778 780 780 782 783 785 789 791 794 797 798 792 793 794 795 795 796 797 798 798 799 803 806 811 817 821 825 829 816 814 816 815 830 813 813 817 819 819 820 820 819
765 768 772 774 776 777 778 780 782 785 788 792 796 798 795 791 792 793 794 795 796 797 798 800 802 808 810 821 830 837 840 834 826 816 817 820 828 815 814 817 820 821 821 821 821
762 766 770 772 774 776 777 779 780 784 784 791 795 801 793 790 788 790 794 796 797 798 802 804 813 817 824 825 838 834 833 834 831 824 824 828 827 820 816 820 820 821 821 821 821
761 765 768 771 773 775 777 780 785 785 778 784 786 787 786 788 788 790 794 796 798 803 809 812 820 819 819 817 814 820 826 830 832 826 827 832 833 822 821 820 823 822 821 820 817
762 765 768 770 772 774 777 776 778 782 780 782 785 786 785 787 791 791 794 798 800 811 812 817 817 816 814 814 816 822 830 835 829 831 831 833 832 826 822 821 816 816 817 816 812
762 764 767 770 772 774 775 778 778 779 787 785 788 784 785 787 790 792 792 796 804 808 811 814 813 812 814 818 822 826 832 836 830 834 835 837 833 826 812 813 813 811 807 806 804
760 764 767 769 775 774 776 777 779 781 790 787 783 783 785 784 790 790 791 795 803 807 812 814 811 814 818 820 821 831 828 829 833 838 849 841 858 831 818 814 811 806 804 798 797
759 764 768 771 771 775 778 779 782 784 775 779 782 782 781 784 790 794 792 793 803 806 810 814 813 815 818 818 816 825 825 828 831 842 844 848 856 833 823 815 805 799 797 794 793
759 764 768 771 774 778 778 780 782 785 779 777 780 780 784 785 790 794 793 793 797 804 807 810 808 810 813 814 814 822 829 836 846 851 869 848 849 831 817 808 799 792 789 790 791
760 765 770 772 776 779 780 783 794 791 790 786 781 778 779 786 791 791 794 798 801 809 811 811 810 808 809 817 818 819 829 873 876 877 861 848 850 798 801 795 794 789 787 787 788
762 767 772 774 778 781 783 797 794 797 794 790 787 778 777 783 788 794 796 795 800 799 805 811 817 809 806 809 816 820 820 838 844 852 849 850 837 807 797 791 788 789 788 786 785
764 770 775 779 781 783 787 795 799 801 799 793 784 782 782 785 785 791 796 790 793 802 801 812 807 801 802 802 806 819 823 821 840 889 872 841 826 806 794 790 786 785 785 784 783
766 774 781 783 784 784 797 797 800 800 798 794 796 801 788 785 787 793 796 791 792 795 797 798 803 806 803 801 805 807 812 831 858 868 871 827 824 803 785 783 781 783 784 782 781
771 782 786 786 787 795 820 812 804 804 801 800 808 810 808 806 807 795 796 797 791 795 796 799 800 812 803 804 802 808 812 812 819 837 844 853 813 799 789 786 784 784 785 783 781
776 786 790 789 806 816 813 813 805 806 808 805 809 811 812 813 811 813 804 811 811 802 801 801 810 813 804 801 806 794 795 801 808 830 834 825 792 781 785 783 782 781 783 781 779
785 793 793 792 818 814 815 816 808 806 804 809 810 808 813 810 823 812 814 815 811 809 798 798 804 806 811 805 808 803 798 799 805 815 812 824 786 782 782 782 781 777 777 780 780
786 800 801 803 818 818 824 831 818 804 809 812 814 810 811 809 803 804 807 807 807 811 811 803 799 792 787 785 792 801 800 796 799 805 791 793 777 782 780 782 784 783 780 780 779
791 805 812 808 815 826 821 823 824 825 813 813 815 818 813 818 810 810 810 807 807 808 807 803 796 798 789 792 787 790 791 793 794 786 794 775 780 769 775 778 780 780 784 781 774
796 802 812 816 814 810 825 828 821 828 819 818 816 810 816 819 812 818 817 818 809 814 810 809 804 803 792 793 797 794 795 789 783 781 786 773 772 762 766 772 776 777 778 774 769
791 794 799 816 826 823 823 822 811 810 812 810 812 813 814 813 811 811 811 809 808 810 810 812 807 810 811 802 801 800 784 774 775 770 769 778 752 760 756 764 758 764 769 765 758